Location: Cluj-Napoca
(46.7712°N, 23.6236°E)
Time: 12:23:45
(UTC+03:00)

ISS - Pass Details

Date: 10 May 2021
Orbit: 417 x 422 km, 51.6° (Epoch: 15 May)

Event Time Altitude Azimuth Distance (km) Brightness Sun altitude
Exits shadow 03:50:23 - 294° (WNW) 1,574 -1.0 -17.4°
Reaches altitude 10° 03:50:34 10° 295° (WNW) 1,505 -1.1 -17.4°
Maximum altitude 03:53:41 34° 3° (N) 712 -2.1 -17.1°
Drops below altitude 10° 03:56:49 10° 71° (ENE) 1,506 -0.1 -16.8°
Sets 03:59:03 0° 81° (E) 2,371 0.8 -16.5°
